Midland Airpark, TX

7:44 PM CDT on June 22, 2017 (GMT -0500)
Midland

Weather History for KMDD - November, 2012

Change the Weather History Date:

Monday, November 5, 2012

  Actual Average (KMAF) Record (KMAF)
Temperature  
Mean Temperature 62 °F -  
Max Temperature 74 °F 65 °F 89 °F (2007)
Min Temperature 50 °F 43 °F 27 °F (1992)
Degree Days  
Heating Degree Days 3    
Growing Degree Days 12 (Base 50)    
Moisture  
Dew Point 41 °F    
Average Humidity 49    
Maximum Humidity 87    
Minimum Humidity 22    
Precipitation  
Precipitation 0.00 in - - ()
Sea Level Pressure  
Sea Level Pressure 30.16 in    
Wind  
Wind Speed 7 mph (NE)    
Max Wind Speed 17 mph    
Max Gust Speed 22 mph    
Visibility 10 miles    
Events      
Averages and records for this station are not official NWS values.
T = Trace of Precipitation, MM = Missing Value Source: NWS Daily Summary

Daily Weather History Graph

Daily Weather History Graph

Search for Another Location

Airport or City:

Trip Planner

Search our weather history database for the weather conditions in past years. The results will help you decide how hot, cold, wet, or windy it might be!

Date:

Astronomy

Nov. 05, 2012 Rise Set
Actual Time 7:08 AM CST 5:54 PM CST
Civil Twilight 6:43 AM CST 6:20 PM CST
Nautical Twilight 6:14 AM CST 6:49 PM CST
Astronomical Twilight 5:45 AM CST 7:17 PM CST
Moon 11:33 PM CST (11/5) 12:28 PM CST (11/5)
Length of Visible Light 11h 36m
Length of Day
10h 45m
Waning Gibbous, 62% of the Moon is Illuminated
Nov 5
Waning Gibbous
Nov 6
Last Quarter
Nov 13
New
Nov 20
First Quarter
Nov 28
Full

Hourly Weather History & Observations

Time (CST) Temp. Dew Point Humidity Pressure Visibility Wind Dir Wind Speed Gust Speed Precip Events Conditions
12:15 AM 63.3 °F 50.4 °F 63% 30.13 in 10.0 mi SSW 8.1 mph - N/A   Clear
12:35 AM 63.0 °F 51.1 °F 65% 30.13 in 10.0 mi SW 8.1 mph - N/A   Clear
12:55 AM 63.1 °F 51.6 °F 66% 30.13 in 10.0 mi SW 9.2 mph - N/A   Clear
1:15 AM 63.1 °F 52.0 °F 67% 30.12 in 10.0 mi SW 8.1 mph - N/A   Clear
1:35 AM 62.4 °F 52.2 °F 69% 30.12 in 10.0 mi SW 6.9 mph - N/A   Clear
1:55 AM 62.1 °F 52.2 °F 70% 30.12 in 10.0 mi SW 6.9 mph - N/A   Clear
2:15 AM 61.5 °F 52.2 °F 71% 30.12 in 10.0 mi SW 8.1 mph - N/A   Clear
2:35 AM 61.0 °F 51.8 °F 72% 30.12 in 10.0 mi SW 5.8 mph - N/A   Clear
2:55 AM 60.3 °F 51.6 °F 73% 30.12 in 10.0 mi Calm Calm - N/A   Clear
3:15 AM 60.1 °F 51.8 °F 74% 30.10 in 10.0 mi SSW 3.5 mph - N/A   Clear
3:35 AM 59.5 °F 51.8 °F 76% 30.10 in 10.0 mi SW 5.8 mph - N/A   Clear
3:55 AM 58.8 °F 51.6 °F 77% 30.10 in 10.0 mi SW 3.5 mph - N/A   Clear
4:15 AM 58.5 °F 51.6 °F 78% 30.10 in 10.0 mi Calm Calm - N/A   Clear
4:35 AM 57.4 °F 51.3 °F 80% 30.10 in 10.0 mi West 4.6 mph - N/A   Clear
4:55 AM 54.9 °F 49.8 °F 83% 30.11 in 10.0 mi North 5.8 mph - N/A   Clear
5:15 AM 52.5 °F 48.7 °F 87% 30.12 in 10.0 mi NNW 3.5 mph - N/A   Clear
5:35 AM 51.8 °F 48.0 °F 87% 30.13 in 10.0 mi NNW 5.8 mph - N/A   Clear
5:55 AM 51.4 °F 47.5 °F 86% 30.12 in 10.0 mi NNW 3.5 mph - N/A   Clear
6:15 AM 51.3 °F 47.3 °F 86% 30.13 in 10.0 mi North 3.5 mph - N/A   Clear
6:35 AM 51.8 °F 47.1 °F 84% 30.13 in 10.0 mi Calm Calm - N/A   Clear
6:55 AM 51.3 °F 46.4 °F 83% 30.14 in 10.0 mi Calm Calm - N/A   Clear
7:15 AM 50.4 °F 45.9 °F 85% 30.15 in 10.0 mi NW 5.8 mph - N/A   Clear
7:35 AM 50.4 °F 45.1 °F 82% 30.15 in 10.0 mi NW 4.6 mph - N/A   Clear
7:55 AM 50.9 °F 44.8 °F 80% 30.16 in 10.0 mi NW 5.8 mph - N/A   Clear
8:15 AM 52.0 °F 45.0 °F 77% 30.16 in 10.0 mi NNW 6.9 mph - N/A   Clear
8:35 AM 53.8 °F 44.8 °F 72% 30.18 in 10.0 mi North 8.1 mph - N/A   Clear
8:55 AM 57.7 °F 43.5 °F 59% 30.19 in 10.0 mi NNE 10.4 mph - N/A   Clear
9:15 AM 60.6 °F 42.6 °F 52% 30.19 in 10.0 mi NE 11.5 mph - N/A   Clear
9:35 AM 63.0 °F 42.3 °F 47% 30.19 in 10.0 mi NE 17.3 mph 21.9 mph N/A   Clear
9:55 AM 64.6 °F 40.6 °F 42% 30.19 in 10.0 mi NE 16.1 mph - N/A   Clear
10:15 AM 65.3 °F 40.3 °F 40% 30.20 in 10.0 mi NE 17.3 mph 21.9 mph N/A   Clear
10:35 AM 66.4 °F 39.6 °F 37% 30.21 in 10.0 mi NE 13.8 mph 20.7 mph N/A   Clear
10:55 AM 68.0 °F 37.8 °F 33% 30.21 in 10.0 mi NE 16.1 mph 21.9 mph N/A   Clear
11:15 AM 69.3 °F 36.0 °F 29% 30.20 in 10.0 mi NE 16.1 mph - N/A   Clear
11:35 AM 70.2 °F 36.7 °F 29% 30.20 in 10.0 mi ENE 13.8 mph 20.7 mph N/A   Clear
11:55 AM 70.9 °F 36.7 °F 29% 30.20 in 10.0 mi NE 16.1 mph 20.7 mph N/A   Clear
12:15 PM 71.8 °F 36.3 °F 27% 30.19 in 10.0 mi ENE 13.8 mph 21.9 mph N/A   Clear
12:35 PM 72.7 °F 34.2 °F 24% 30.18 in 7.0 mi ENE 15.0 mph 21.9 mph N/A   Clear
12:55 PM 73.4 °F 32.7 °F 22% 30.17 in 10.0 mi NE 13.8 mph 19.6 mph N/A   Clear
1:15 PM 73.8 °F 32.4 °F 22% 30.17 in 10.0 mi East 16.1 mph 20.7 mph N/A   Clear
1:35 PM 73.8 °F 32.5 °F 22% 30.16 in 10.0 mi ENE 12.7 mph 19.6 mph N/A   Clear
1:55 PM 73.9 °F 32.9 °F 22% 30.15 in 10.0 mi East 12.7 mph 18.4 mph N/A   Clear
2:15 PM 74.3 °F 33.3 °F 22% 30.15 in 10.0 mi ENE 10.4 mph 18.4 mph N/A   Clear
2:35 PM 74.3 °F 33.6 °F 23% 30.14 in 10.0 mi East 12.7 mph 17.3 mph N/A   Clear
2:55 PM 74.7 °F 34.0 °F 23% 30.14 in 10.0 mi NE 11.5 mph 16.1 mph N/A   Clear
3:15 PM 74.7 °F 33.8 °F 22% 30.14 in 10.0 mi ENE 10.4 mph - N/A   Clear
3:35 PM 74.7 °F 33.3 °F 22% 30.14 in 10.0 mi ENE 10.4 mph - N/A   Clear
3:55 PM 74.3 °F 33.6 °F 23% 30.15 in 10.0 mi NNE 8.1 mph - N/A   Clear
4:15 PM 73.9 °F 33.4 °F 23% 30.14 in 10.0 mi NE 8.1 mph - N/A   Clear
4:35 PM 73.6 °F 33.1 °F 23% 30.14 in 10.0 mi ENE 8.1 mph - N/A   Clear
4:55 PM 73.2 °F 33.4 °F 23% 30.15 in 10.0 mi ENE 9.2 mph - N/A   Clear
5:15 PM 72.5 °F 33.3 °F 24% 30.15 in 10.0 mi East 9.2 mph - N/A   Clear
5:35 PM 71.6 °F 33.4 °F 25% 30.15 in 10.0 mi East 4.6 mph - N/A   Clear
5:55 PM 70.2 °F 34.0 °F 26% 30.15 in 10.0 mi East 4.6 mph - N/A   Clear
6:15 PM 68.5 °F 34.5 °F 29% 30.15 in 10.0 mi East 4.6 mph - N/A   Clear
6:35 PM 66.9 °F 34.7 °F 30% 30.15 in 10.0 mi East 3.5 mph - N/A   Clear
6:55 PM 66.4 °F 34.7 °F 31% 30.16 in 10.0 mi ESE 3.5 mph - N/A   Clear
7:15 PM 65.7 °F 34.9 °F 32% 30.17 in 10.0 mi ESE 3.5 mph - N/A   Clear
7:35 PM 64.6 °F 35.1 °F 33% 30.18 in 10.0 mi Calm Calm - N/A   Clear
7:55 PM 63.3 °F 35.2 °F 35% 30.18 in 10.0 mi SE 3.5 mph - N/A   Clear
8:15 PM 62.8 °F 35.1 °F 36% 30.18 in 10.0 mi SE 4.6 mph - N/A   Clear
8:35 PM 62.6 °F 34.5 °F 35% 30.18 in 10.0 mi ESE 3.5 mph - N/A   Clear
8:55 PM 61.2 °F 35.6 °F 39% 30.18 in 10.0 mi Calm Calm - N/A   Clear
9:15 PM 60.1 °F 36.3 °F 41% 30.19 in 10.0 mi Calm Calm - N/A   Clear
9:35 PM 59.9 °F 36.5 °F 42% 30.19 in 10.0 mi Calm Calm - N/A   Clear
9:55 PM 59.0 °F 36.7 °F 43% 30.19 in 10.0 mi Calm Calm - N/A   Clear
10:15 PM 58.3 °F 37.2 °F 45% 30.18 in 10.0 mi Calm Calm - N/A   Clear
10:35 PM 57.7 °F 37.2 °F 46% 30.18 in 10.0 mi Calm Calm - N/A   Clear
10:55 PM 58.1 °F 36.9 °F 45% 30.18 in 10.0 mi Calm Calm - N/A   Clear
11:15 PM 57.0 °F 37.0 °F 47% 30.18 in 10.0 mi Calm Calm - N/A   Clear
11:35 PM 54.1 °F 38.3 °F 55% 30.18 in 10.0 mi Calm Calm - N/A   Clear
11:55 PM 53.6 °F 38.8 °F 57% 30.19 in 10.0 mi Calm Calm - N/A   Clear